Weather in Zakharovskoye

Russia / Sverdlovsk Oblast     56°42′09″N   62°38′28″E
temp.,
°C
wind,
m/s
gust,
m/s
humid.,
%
clouds,
%
prec.,
mm/h
press.,
hPa
HPBL,
m
2 march, tue
tue223:00−20ssw239973 0.0 101620
02:00−21sw239832 0.0 101520
05:00−21sw349816 0.0 101441
08:00−21ssw34988 0.0 101180
11:00−14sw58904 0.0 1010359
14:00−11ssw6108763 0.0 1007522
17:00−10ssw5119081 0.0 1005438
20:00−12s61292100 0.0 1003332
3 march, wed
wed323:00−11ssw61194100 0.2 1003317
02:00−9ssw4994100 0.3 1001400
05:00−10ssw4994100 0.4 1001383
08:00−10ssw5109596 0.3 999387
11:00−7ssw6109198 0.9 998524
14:00−3ssw6109099 0.0 997671
17:00−1sw5989100 0.3 998733
20:00−4sw479099 0.1 998130
4 march, thu
thu423:00−7sw348970 0.1 99965
02:00−9sw339360 0.0 99828
05:00−9ssw339380 0.0 99834
08:00−8ssw359697 0.1 996128
11:00−5wsw489281 0.1 996443
14:00−4wsw589097 0.1 995743
17:00−4w6118198 0.4 997795
20:00−9wsw4108792 0.0 998179
5 march, fri
fri523:00−11sw498946 0.0 999168
02:00−11ssw499186 0.0 999198
05:00−8ssw6129493 1.0 997485
08:00−7ssw71491100 1.4 994637
11:00−2wsw8158099 1.5 9951333
14:00−1wsw6108092 0.0 9971150
17:00−1sw378696 0.0 999389
20:00−3sw2497100 0.3 998103
6 march, sat
sat623:00−5wnw2297100 0.8 99841
02:00−6nw51095100 1.1 999476
05:00−12w6138982 1.3 1002340
08:00−13w613880 0.0 1006403
11:00−11w712840 0.0 1008648
14:00−9w7108355 0.0 1009787
17:00−10w598578 0.0 1010669
20:00−14wsw359199 0.0 101187